Regional Weather Roundup
Issued by NWS Little Rock, AR

Home | Current Version | Previous Version | Text Only | Print | Product List | Glossary On
Versions: 1 2 3 4 5 6 7 8 9 10 11 12 13 14 15 16 17 18 19 20 21 22 23 24 25 26 27
000
ASUS44 KLZK 202205
RWRLZK

WEATHER ROUNDUP FOR ARKANSAS
NATIONAL WEATHER SERVICE LITTLE ROCK AR
500 PM CDT SUN APR 20 2014

NOTE: "FAIR" INDICATES FEW OR NO CLOUDS BELOW 12,000 FEET WITH NO
SIGNIFICANT WEATHER AND/OR OBSTRUCTIONS TO VISIBILITY.

ARZ001-003-010-029-202300-
NORTHWEST ARKANSAS

CITY           SKY/WX    TMP DP  RH WIND       PRES   REMARKS
FAYETTEVILLE   CLOUDY    70  54  56 S7        30.09F
FORT SMITH     CLOUDY    80  51  36 VRB3      30.06F
HARRISON       PTSUNNY   77  47  34 S9        30.09F
BENTONVILLE    PTSUNNY   73  48  40 S5        30.10F
ROGERS         PTSUNNY   73  51  46 S8        30.09F
SILOAM SPGS    CLOUDY    72  52  49 SW12      30.10F
HIGHFILL       CLOUDY    72  52  49 S6        30.08F
SPRINGDALE     CLOUDY    73  52  46 SW7       30.11F
$$

ARZ004-005-016-202300-
NORTH CENTRAL ARKANSAS

CITY           SKY/WX    TMP DP  RH WIND       PRES   REMARKS
BATESVILLE     PTSUNNY   81  48  32 S8        30.07F
FLIPPIN        MOSUNNY   79  46  31 SE3       30.06F
MTN HOME       MOSUNNY   79  44  28 S6        30.06F
$$

ARZ040-041-202300-
WEST CENTRAL ARKANSAS

CITY           SKY/WX    TMP DP  RH WIND       PRES   REMARKS
MENA           PTSUNNY   79  48  34 CALM      30.08F
MOUNT IDA      CLOUDY    77  53  43 SE8       30.06F
$$

ARZ009-017-025-026-028-202300-
NORTHEAST ARKANSAS

CITY           SKY/WX    TMP DP  RH WIND       PRES   REMARKS
CORNING        FAIR      77  46  33 SW6       30.10S
JONESBORO      MOSUNNY   78  46  32 S6        30.09F
NEWPORT        CLOUDY    78  46  32 S7        30.10F
WALNUT RIDGE   PTSUNNY   77  48  36 S10       30.10F
BLYTHEVILLE    SUNNY     79  45  29 SW7       30.10F
$$

ARZ022-023-033-042-044-202300-
CENTRAL ARKANSAS

CITY           SKY/WX    TMP DP  RH WIND       PRES   REMARKS
LITTLE ROCK    PTSUNNY   79  50  36 SE9       30.08F
N LITTLE ROCK  PTSUNNY   78  55  44 S6        30.08F
JACKSONVILLE   SUNNY     81  54  39 S6        30.09F
SEARCY         PTSUNNY   80  51  36 S12       30.10F
HOT SPRINGS    CLOUDY    78  50  37 VRB3      30.09F
RUSSELLVILLE   PTSUNNY   79  52  38 VRB5      30.07F
CLINTON        FAIR      79  54  41 S3        30.08F
$$

ARZ036-202300-
EAST ARKANSAS

CITY           SKY/WX    TMP DP  RH WIND       PRES   REMARKS
WEST MEMPHIS   MOSUNNY   79  47  32 S6        30.09F
$$

ARZ050-053-066-070-073-202300-
SOUTHWEST ARKANSAS

CITY           SKY/WX    TMP DP  RH WIND       PRES   REMARKS
ARKADELPHIA    FAIR      80  54  40 S6        30.07F
CAMDEN         MOSUNNY   81  50  34 MISG      30.07F
TEXARKANA      CLOUDY    77  55  46 S7        30.07F
EL DORADO      PTSUNNY   80  53  39 MISG      30.07F
DE QUEEN       PTSUNNY   77  55  46 SE6       30.04F
$$

ARZ056-057-069-202300-
SOUTHEAST ARKANSAS

CITY           SKY/WX    TMP DP  RH WIND       PRES   REMARKS
PINE BLUFF     SUNNY     79  55  43 E5        30.08F
STUTTGART      MOSUNNY   81  48  32 S7        30.10F
MONTICELLO     SUNNY     82  46  28 SE10      30.09F

$$





USA.gov is the U.S. government's official web portal to all federal, state and local government web resources and services.